EN

Hourly Weather Luganskoe

Today, 2 October, Friday

Time Temperature Precipitation Wind Pressure Humidity
00:00 +12°C° 0 mm 3 mps 750 mmHg 63%
01:00 +11°C° 0 mm 3 mps 750 mmHg 66%
02:00 +11°C° 0 mm 3 mps 750 mmHg 68%
03:00 +11°C° 0 mm 3 mps 750 mmHg 71%
04:00 +10°C° 0 mm 3 mps 750 mmHg 72%
05:00 +10°C° 0 mm 3 mps 750 mmHg 73%
06:00 +10°C° 0 mm 3 mps 750 mmHg 74%
07:00 +11°C° 0 mm 4 mps 751 mmHg 67%
08:00 +12°C° 0 mm 4 mps 751 mmHg 60%
09:00 +14°C° 0 mm 4 mps 751 mmHg 53%
10:00 +15°C° 0 mm 5 mps 751 mmHg 48%
11:00 +17°C° 0 mm 5 mps 751 mmHg 43%
12:00 +19°C° 0 mm 5 mps 751 mmHg 38%
13:00 +19°C° 0 mm 5 mps 751 mmHg 37%
14:00 +20°C° 0 mm 5 mps 751 mmHg 36%
15:00 +20°C° 0 mm 5 mps 750 mmHg 35%
16:00 +19°C° 0 mm 4 mps 750 mmHg 38%
17:00 +17°C° 0 mm 4 mps 750 mmHg 41%
18:00 +16°C° 0 mm 3 mps 750 mmHg 44%
19:00 +14°C° 0 mm 3 mps 750 mmHg 45%
20:00 +14°C° 0 mm 3 mps 751 mmHg 47%
21:00 +13°C° 0 mm 3 mps 751 mmHg 49%
22:00 +13°C° 0 mm 2 mps 751 mmHg 50%
23:00 +13°C° 0 mm 2 mps 751 mmHg 52%

Tomorrow, 3 October, Saturday

Time Temperature Precipitation Wind Pressure Humidity
00:00 +12°C° 0 mm 2 mps 751 mmHg 53%
01:00 +12°C° 0 mm 2 mps 751 mmHg 54%
02:00 +12°C° 0 mm 2 mps 751 mmHg 55%
03:00 +10°C° 0 mm 2 mps 751 mmHg 56%
04:00 +10°C° 0 mm 2 mps 751 mmHg 57%
05:00 +10°C° 0 mm 2 mps 751 mmHg 58%
06:00 +9°C° 0 mm 2 mps 751 mmHg 60%
07:00 +12°C° 0 mm 2 mps 751 mmHg 56%
08:00 +12°C° 0 mm 3 mps 751 mmHg 53%
09:00 +13°C° 0 mm 3 mps 752 mmHg 50%
10:00 +14°C° 0 mm 3 mps 752 mmHg 47%
11:00 +16°C° 0 mm 2 mps 752 mmHg 44%
12:00 +17°C° 0 mm 2 mps 752 mmHg 42%
13:00 +18°C° 0 mm 2 mps 751 mmHg 41%
14:00 +18°C° 0 mm 2 mps 751 mmHg 40%
15:00 +18°C° 0 mm 2 mps 751 mmHg 39%
16:00 +18°C° 0 mm 1 mps 751 mmHg 42%
17:00 +16°C° 0 mm 1 mps 751 mmHg 45%
18:00 +15°C° 0 mm 1 mps 751 mmHg 47%
19:00 +15°C° 0 mm 1 mps 751 mmHg 49%
20:00 +14°C° 0 mm 1 mps 751 mmHg 50%
21:00 +14°C° 0 mm 1 mps 751 mmHg 51%
22:00 +14°C° 0 mm 1 mps 751 mmHg 53%
23:00 +13°C° 0 mm 1 mps 751 mmHg 55%

Day after tomorrow, 4 October, Sunday

Time Temperature Precipitation Wind Pressure Humidity
00:00 +13°C° 0 mm 1 mps 751 mmHg 57%
01:00 +13°C° 0 mm 2 mps 751 mmHg 60%
02:00 +13°C° 0 mm 2 mps 752 mmHg 63%
03:00 +12°C° 0 mm 2 mps 752 mmHg 67%
04:00 +12°C° 0 mm 2 mps 752 mmHg 70%
05:00 +12°C° 0 mm 2 mps 752 mmHg 74%
06:00 +12°C° 0 mm 2 mps 752 mmHg 78%
07:00 +11°C° 0 mm 3 mps 752 mmHg 75%
08:00 +12°C° 0 mm 3 mps 752 mmHg 71%
09:00 +13°C° 0 mm 3 mps 752 mmHg 68%
10:00 +14°C° 0 mm 3 mps 752 mmHg 64%
11:00 +16°C° 0 mm 3 mps 752 mmHg 60%
12:00 +17°C° 0 mm 4 mps 752 mmHg 56%
13:00 +17°C° 0 mm 3 mps 752 mmHg 54%
14:00 +18°C° 0 mm 3 mps 752 mmHg 52%
15:00 +18°C° 0 mm 3 mps 752 mmHg 50%
16:00 +17°C° 0 mm 3 mps 752 mmHg 53%
17:00 +16°C° 0 mm 3 mps 752 mmHg 57%
18:00 +14°C° 0 mm 3 mps 752 mmHg 60%
19:00 +13°C° 0 mm 3 mps 752 mmHg 62%
20:00 +12°C° 0 mm 3 mps 752 mmHg 64%
21:00 +11°C° 0 mm 3 mps 753 mmHg 66%
22:00 +11°C° 0 mm 3 mps 753 mmHg 71%
23:00 +10°C° 0 mm 3 mps 753 mmHg 76%

5 October, Monday

Time Temperature Precipitation Wind Pressure Humidity
00:00 +9°C° 0 mm 3 mps 753 mmHg 80%
01:00 +9°C° 0 mm 3 mps 753 mmHg 82%
02:00 +8°C° 0 mm 3 mps 753 mmHg 84%
03:00 +8°C° 0 mm 3 mps 753 mmHg 85%
04:00 +7°C° 0 mm 3 mps 754 mmHg 85%
05:00 +7°C° 0 mm 3 mps 754 mmHg 84%
06:00 +7°C° 0 mm 3 mps 754 mmHg 84%
07:00 +8°C° 0 mm 3 mps 754 mmHg 75%
08:00 +8°C° 0 mm 4 mps 754 mmHg 66%
09:00 +10°C° 0 mm 4 mps 754 mmHg 56%
10:00 +11°C° 0 mm 4 mps 755 mmHg 53%
11:00 +12°C° 0 mm 4 mps 755 mmHg 49%
12:00 +13°C° 0 mm 3 mps 755 mmHg 45%
13:00 +13°C° 0 mm 3 mps 754 mmHg 44%
14:00 +13°C° 0 mm 3 mps 754 mmHg 42%
15:00 +14°C° 0 mm 3 mps 754 mmHg 40%
16:00 +12°C° 0 mm 3 mps 754 mmHg 42%
17:00 +12°C° 0 mm 2 mps 754 mmHg 44%
18:00 +10°C° 0 mm 2 mps 754 mmHg 46%
19:00 +9°C° 0 mm 2 mps 754 mmHg 48%
20:00 +9°C° 0 mm 2 mps 754 mmHg 49%
21:00 +8°C° 0 mm 2 mps 754 mmHg 51%
22:00 +8°C° 0 mm 2 mps 754 mmHg 50%
23:00 +8°C° 0 mm 1 mps 754 mmHg 50%

6 October, Tuesday

Time Temperature Precipitation Wind Pressure Humidity
00:00 +8°C° 0 mm 1 mps 754 mmHg 50%
01:00 +8°C° 0 mm 1 mps 754 mmHg 50%
02:00 +7°C° 0 mm 1 mps 753 mmHg 51%
03:00 +7°C° 0 mm 1 mps 753 mmHg 51%
04:00 +7°C° 0 mm 1 mps 753 mmHg 51%
05:00 +7°C° 0 mm 1 mps 753 mmHg 51%
06:00 +7°C° 0 mm 1 mps 753 mmHg 51%
07:00 +7°C° 0 mm 0 mps 753 mmHg 47%
08:00 +8°C° 0 mm 0 mps 753 mmHg 43%
09:00 +9°C° 0 mm 0 mps 753 mmHg 39%
10:00 +11°C° 0 mm 0 mps 753 mmHg 37%
11:00 +12°C° 0 mm 0 mps 753 mmHg 35%
12:00 +13°C° 0 mm 0 mps 753 mmHg 33%
13:00 +13°C° 0 mm 0 mps 753 mmHg 32%
14:00 +13°C° 0 mm 0 mps 752 mmHg 31%
15:00 +15°C° 0 mm 1 mps 752 mmHg 31%
16:00 +14°C° 0 mm 1 mps 752 mmHg 34%
17:00 +13°C° 0 mm 1 mps 752 mmHg 37%
18:00 +12°C° 0 mm 1 mps 751 mmHg 40%
19:00 +11°C° 0 mm 1 mps 751 mmHg 41%
20:00 +11°C° 0 mm 1 mps 751 mmHg 42%
21:00 +11°C° 0 mm 1 mps 751 mmHg 42%
22:00 +10°C° 0 mm 1 mps 751 mmHg 43%
23:00 +9°C° 0 mm 2 mps 751 mmHg 44%

7 October, Wednesday

Time Temperature Precipitation Wind Pressure Humidity
00:00 +9°C° 0 mm 2 mps 751 mmHg 45%
01:00 +9°C° 0 mm 2 mps 750 mmHg 45%
02:00 +9°C° 0 mm 2 mps 750 mmHg 45%
03:00 +9°C° 0 mm 2 mps 750 mmHg 46%
04:00 +9°C° 0 mm 2 mps 750 mmHg 46%
05:00 +10°C° 0 mm 2 mps 750 mmHg 45%
06:00 +10°C° 0 mm 2 mps 750 mmHg 45%
07:00 +12°C° 0 mm 2 mps 750 mmHg 44%
08:00 +13°C° 0 mm 2 mps 750 mmHg 43%
09:00 +14°C° 0 mm 2 mps 750 mmHg 41%
10:00 +15°C° 0 mm 2 mps 750 mmHg 40%
11:00 +16°C° 0 mm 2 mps 750 mmHg 38%
12:00 +18°C° 0 mm 2 mps 750 mmHg 36%
13:00 +18°C° 0 mm 3 mps 750 mmHg 34%
14:00 +19°C° 0 mm 3 mps 749 mmHg 33%
15:00 +19°C° 0 mm 3 mps 749 mmHg 32%
16:00 +18°C° 0 mm 3 mps 749 mmHg 35%
17:00 +16°C° 0 mm 3 mps 749 mmHg 38%
18:00 +15°C° 0 mm 2 mps 749 mmHg 41%
19:00 +14°C° 0 mm 2 mps 749 mmHg 43%
20:00 +14°C° 0 mm 2 mps 749 mmHg 45%
21:00 +13°C° 0 mm 2 mps 749 mmHg 47%
22:00 +13°C° 0 mm 2 mps 749 mmHg 48%
23:00 +13°C° 0 mm 2 mps 750 mmHg 49%
Show more

We Need Your Consent

Meteoprog and our Service Providers may store and access personal data such as cookies, device identifiers or other similar technologies on your device and process such data to personalise content and ads, as well as provide social media features and to analyse the traffic.

  • Store and/or access information on your device

    Cookies, device identifiers or other information can be stored or accessed on your device for the purposes indicated above.

  • Personalised ads and content, ad and content measurement, audience insights, and products development

    Ads and content can be personalised based on a profile. More data can be added to better personalise ads and content. Ad and content performance can be measured. Insights about the audience who saw the ads and content can be derived. Such data can be used to develop or improve user’s experience, systems and software.

By clicking ‘I Agree’ you will allow the use of indicated cookies, device identifiers, web beacons or other similar technologies. Your settings can be changed in the browser on your device.

For certain purposes, legitimate interests may be relied on, rather than consent. You can read more about this in our Privacy and Cookie Policy.